{"data":{"norad_id":68895,"intl_designator":"2026-097A","name":"STARLINK-37527","alt_names":[],"object_type":"PAYLOAD","status":"ACTIVE","operator":null,"country":"US","launch_date":"2026-04-30","launch_site_code":"AFWTR","launch_vehicle":null,"mission":null,"orbit_class":"UNKNOWN","rcs_meters":null,"size_class":null,"mass_kg":null,"dimensions":null,"purposes":["comms"],"wikipedia_slug":null,"has_3d_model":false,"image_url":null,"decayed_at":null,"tle_current":{"epoch":"2026-09-20T00:00:02.998944Z","epoch_age_seconds":58669,"freshness":"FRESH","line1":"1 68895U 26097A   26263.00003471  .00060747  00000+0  18714-2 0  9990","line2":"2 68895  97.2855  97.0764 0003122  91.8492 154.1413 15.33400021  5898","mean_motion":15.33400021,"eccentricity":0.0003122,"inclination_deg":97.2855,"raan_deg":97.0764,"arg_perigee_deg":91.8492,"mean_anomaly_deg":154.1413,"bstar":0.0018714,"rev_number":589,"period_min":93.908959193891,"perigee_km":463.54036487602,"apogee_km":467.81364233987,"semimajor_km":6843.8140036079,"source":"CELESTRAK","updated_at":"2026-09-20T09:00:44.045492Z"}}}